Location: Brivio
(45.7333°N, 9.4500°E)
Time: 05:59:05
(UTC+00:00)

N. Korean satellite - Pass Details

Date: 12 December 2019
Orbit: 454 x 508 km, 97.2° (Epoch: 20 January)

Event Time Altitude Azimuth Distance (km) Brightness Sun altitude
Rises 04:09:42 0° 32° (NNE) 2,538 10.6 -27.6°
Reaches altitude 10° 04:12:50 10° 63° (ENE) 1,638 9.9 -27.0°
Maximum altitude 04:14:24 13° 90° (E) 1,480 9.9 -26.7°
Drops below altitude 10° 04:15:57 10° 117° (ESE) 1,619 10.1 -26.5°
Sets 04:19:00 0° 148° (SSE) 2,476 10.7 -25.9°
